Forum


Ask a question

No. FLOSS Question Date
Views
Answers
1 DWSIM CAPE-OPEN Unit Operations 2019-09-17 14:27:21.315684 8 0
2 DWSIM How to add a Component Splitter 2019-09-17 14:20:25.989936 6 0
3 DWSIM chemicals and thermodynamic 2019-07-28 18:10:08.125386 85 1
4 DWSIM .ERROR IN POWER CALC OF PUMP 2019-07-09 13:34:58.961977 70 1
5 DWSIM Not responding error 2019-06-29 10:33:49.500974 91 4
6 DWSIM Error while accessing compounds 2019-06-26 17:38:39.404765 80 1
7 DWSIM R.O desalination 2019-05-17 15:32:40.033347 162 1
8 DWSIM Custom modeler 2019-05-17 15:03:35.785255 145 1
9 DWSIM classic extractive distillation with 2 simple columns,  with water, ethanol and benzene 2019-04-28 20:10:56.613384 159 1
10 DWSIM Not able to download the codes for Textbook Companion Project 2019-04-24 04:06:12.674019 165 1
11 DWSIM Reaction manager 2019-03-26 16:30:04.686962 253 1
12 DWSIM equillibrium reactor 2019-03-12 18:01:08.763284 264 2
13 DWSIM Issues related to DWSIM in mac 2019-01-08 15:36:26.443308 340 2
14 DWSIM upload user define compound 2018-12-23 06:48:53.388854 263 1
15 DWSIM DWSIM Wastewater treatment process 2018-12-19 20:43:41.379014 320 1
16 DWSIM Problem with "Valve" 2018-12-05 08:35:47.995121 313 3
17 DWSIM find the enthalpy in python script 2018-12-04 04:49:54.852579 270 1
18 DWSIM Rigourous Distillation column error with image file 2018-11-21 12:52:40.637300 319 1
19 DWSIM error in a kinetic reaction 2018-11-01 11:40:17.000000 335 1
20 DWSIM error in LLE ternary graph utility 2018-10-08 15:22:17.000000 388 2
21 DWSIM doubt regarding reaction furnace and condenser 2018-09-15 14:15:00.000000 337 1
22 DWSIM Error in stichiometry 2018-08-24 09:17:41.000000 362 3
23 DWSIM Simulation of process model for n number of data points or observations 2018-08-24 08:51:16.000000 322 1
24 DWSIM Development of graphical user interface in Excel 2018-08-24 08:45:45.000000 332 1
25 DWSIM about flowsheet submission 2018-07-29 12:56:35.000000 506 1
26 DWSIM about a scrubber design 2018-07-22 15:53:53.000000 433 1
27 DWSIM Pipe unit operation 2018-07-14 14:42:47.000000 371 1
28 DWSIM About internship's forms 2018-07-05 10:00:45.000000 382 1
29 DWSIM Simulating a condensor 2018-06-24 04:42:34.000000 440 1
30 DWSIM Python Documentation For DWSIM 2018-06-21 06:57:47.000000 504 1
31 DWSIM Bubble Column Reactor Substitute 2018-06-20 05:45:42.000000 412 1
32 DWSIM Compound not available 2018-06-01 17:08:01.000000 392 1
33 DWSIM help about vinyl chloride 2018-05-28 18:01:35.000000 346 1
34 DWSIM Crude Desalter Simulator 2018-05-27 06:17:30.000000 403 1
35 DWSIM separator column in compound separater 2018-05-26 18:24:56.000000 337 1
36 DWSIM fixing the output data for a given problem 2018-05-26 17:18:25.000000 333 1
37 DWSIM Conversion reactor 2018-05-21 20:31:08.000000 392 4
38 DWSIM UNIQUAC package with default flash doesnot converge. 2018-05-17 18:37:34.000000 418 3
39 DWSIM Brine evaporation in DWSIM 2018-04-21 04:54:02.000000 444 1
40 DWSIM Regarding adding compuonds in DWSIM 2018-04-04 11:45:22.000000 698 1
41 DWSIM About unit operations in DWSIM 2018-04-03 12:00:22.000000 482 1
42 DWSIM CATALYST is not present 2018-03-21 18:44:11.000000 472 2
43 DWSIM Dehydration Plant Simulation 2018-02-27 14:03:49.000000 407 2
44 DWSIM Dehydration Plant 2018-02-19 15:29:52.000000 483 1
45 DWSIM Proble with opening DWSIM file into software 2018-02-02 07:11:26.000000 536 1
46 DWSIM Kinetic reaction 2018-01-21 05:17:44.000000 471 1
47 DWSIM Rigorous Distillation 2018-01-12 06:01:32.000000 558 1
48 DWSIM PFR step size error 2018-01-11 10:26:39.000000 461 1
49 DWSIM Displaying reaction results 2017-12-31 08:31:37.000000 452 1
50 DWSIM can you suggest me the solution for the error I'm getting while designing methanol synthesis process ? 2017-12-22 12:22:28.000000 490 1
51 DWSIM DWSIM for membrane separation 2017-10-30 17:26:45.000000 719 1
52 DWSIM Downloading the Tutorials 2017-10-03 13:49:40.000000 552 1
53 DWSIM Issue in DWSIM Software Installation 2017-10-02 05:45:54.000000 645 1
54 DWSIM Three phase open-source library 2017-09-13 14:22:55.000000 533 1
55 DWSIM Three phase library open-source 2017-09-13 14:22:23.000000 552 1
56 DWSIM can we use DWSIM for simulutions for a spray or rotay drier systems 2017-09-07 08:36:51.000000 597 1
57 DWSIM internship details 2017-08-14 14:13:59.000000 530 1
58 DWSIM Regarding Submission of flow sheet and its deadline. 2017-08-07 15:00:09.000000 553 1
59 DWSIM Assigning operating pressure for distillation column 2017-07-26 18:58:47.000000 625 1
60 DWSIM step size becomes too small error in plug flow reactor 2017-05-14 05:44:09.000000 707 1
61 DWSIM double clicking not opening main editing window 2017-05-12 02:47:51.000000 549 1
62 DWSIM Multi component Distillation 2017-04-25 12:11:09.000000 953 1
63 DWSIM Unbalanced equation 2017-03-19 14:23:10.000000 649 2
64 DWSIM DWSIM components 2017-03-08 14:13:14.000000 795 2
65 DWSIM RECYCLE STREAM 2017-01-10 04:40:53.000000 1206 1
66 DWSIM SIMULATION inquiry 2016-12-29 06:53:02.000000 691 2
67 DWSIM HEAT EXCHANGER 2016-12-04 05:57:37.000000 914 1
68 DWSIM OPEN SOURCE APPLICATION 2016-12-03 04:08:30.000000 686 5
69 DWSIM FLASH DRUM SEPARATOR 2016-12-03 02:40:31.000000 806 1
70 DWSIM New Compound Creator Study 2016-05-26 11:56:10.000000 1813 1
71 DWSIM How to install and run DWSIM on MAC AIR? 2016-04-25 10:40:30.000000 1191 2
72 DWSIM Creating component hypothetically 2016-04-22 09:22:23.000000 2967 2
73 DWSIM Equilibrium reactor simulation 2016-02-26 15:40:26.000000 3701 2
74 DWSIM Textbook companion project 2016-02-10 13:38:57.000000 1004 2
75 DWSIM Conversion of Reaction 2016-01-04 14:31:49.000000 1345 1
76 DWSIM Unavailability of compounds in Database 2015-12-24 14:14:49.000000 1690 2
77 DWSIM TEXTBOOK COMPANION INTERNSHIP 2015-12-23 17:35:03.000000 964 1
78 DWSIM Transient simulations and Stream wise report 2015-10-21 07:04:10.000000 1304 1